Wind_Speed
22 22 23 23 23 23 24 24 24 23 22 20 19 19 19 19 18 19 19 19 19 19 18 17 17 17 17 18 18 18 18 19 19 19 19 19 19 19 20 20 21 21 21 22
25 25 26 25 25 25 25 26 26 24 23 22 22 21 21 21 20 20 20 20 20 21 21 20 19 18 18 19 19 19 19 20 20 21 21 22 21 22 22 22 22 22 22 23
26 26 27 28 25 25 25 25 24 24 23 23 23 23 22 22 21 20 20 21 22 22 22 21 20 20 20 20 20 20 21 21 22 22 23 23 23 23 23 24 24 24 24 24
29 29 30 27 26 25 25 25 25 24 24 24 25 24 23 23 23 22 23 22 22 22 22 22 22 22 23 22 21 21 22 22 23 23 24 25 25 25 25 26 26 26 27 27
31 31 30 29 27 27 26 26 26 26 25 26 26 26 25 25 24 24 24 24 24 23 23 24 24 24 25 24 23 23 24 24 25 25 25 26 26 25 26 27 27 28 28 29
32 32 32 29 29 28 28 29 27 27 27 27 27 27 26 26 25 25 25 25 26 26 25 26 26 26 26 26 25 25 25 26 26 27 27 27 27 27 28 28 28 29 29 30
32 32 32 30 29 29 30 29 28 28 28 28 28 27 26 26 26 26 26 27 27 27 26 27 27 27 28 27 27 28 27 27 28 28 28 28 28 28 29 29 30 30 30 31
32 32 31 29 29 30 30 29 29 29 29 29 29 28 28 28 28 27 28 28 28 28 28 29 29 29 29 29 28 28 28 28 29 29 28 28 28 29 30 30 30 30 31 31
33 32 31 30 30 30 30 30 30 30 30 30 29 29 29 29 29 29 29 29 29 30 30 31 31 31 30 30 29 30 30 29 29 29 29 29 30 30 30 30 31 31 31 30
32 32 32 31 31 31 31 31 31 31 31 31 31 30 31 31 30 30 30 30 30 30 31 31 32 32 31 31 31 31 30 29 28 29 30 30 31 31 31 31 32 32 31 31
32 32 32 32 32 32 32 32 32 32 33 33 33 32 32 32 32 31 31 31 31 31 31 31 32 31 31 31 31 32 31 31 30 30 31 32 32 31 31 32 32 32 31 31
32 32 33 32 32 32 32 32 32 32 33 33 34 33 33 33 32 32 31 31 32 32 31 31 31 31 31 32 32 32 31 31 30 31 31 31 31 31 32 32 32 32 32 32
31 32 32 32 33 34 33 33 32 31 32 32 33 33 33 33 32 32 31 31 31 32 32 30 30 31 31 31 31 31 31 31 30 30 30 31 31 31 31 32 32 32 32 32
32 31 32 32 33 33 33 33 32 32 31 30 31 32 32 32 32 31 30 30 30 30 30 30 30 30 30 31 31 30 30 30 30 30 30 30 31 31 31 31 32 33 33 33
31 32 32 32 32 32 32 32 32 32 31 29 29 30 31 31 31 31 30 30 30 30 29 29 30 30 31 31 31 31 30 30 30 30 30 30 31 31 31 32 32 33 33 33
31 32 32 32 32 31 31 30 30 30 30 29 29 29 29 30 30 29 28 29 29 28 28 29 29 30 31 31 30 31 31 31 31 31 31 30 30 31 32 32 32 32 32 32
31 31 32 32 31 30 30 30 30 30 29 28 28 27 27 28 28 28 28 27 26 27 28 28 28 29 29 29 30 30 31 31 31 31 31 31 32 32 32 32 31 31 31 31
29 30 30 30 29 28 28 29 29 29 28 28 28 27 26 27 26 26 26 26 26 26 27 27 28 28 29 29 30 30 30 30 31 32 33 32 31 31 31 31 31 31 30 31
27 27 27 26 26 26 27 27 27 27 28 28 27 26 26 26 26 26 26 25 25 26 26 27 27 28 28 29 29 30 30 31 32 32 32 31 31 31 31 31 31 31 30 30
27 26 26 25 26 26 26 26 26 26 26 26 25 25 25 26 26 26 26 25 25 25 26 26 27 27 28 29 29 29 29 30 31 31 31 31 31 31 31 31 31 31 30 30
25 25 24 23 24 25 26 25 25 25 26 26 25 25 24 25 26 25 25 25 25 25 26 26 27 27 27 28 29 29 29 30 30 31 31 31 30 30 30 31 31 31 30 30
23 23 24 24 24 25 25 25 26 26 25 25 25 25 25 25 25 25 25 25 25 25 26 27 27 28 28 28 29 29 30 30 31 31 30 30 29 29 30 30 30 30 30 29
22 23 23 24 24 24 24 25 25 25 25 25 25 25 25 25 25 25 25 26 26 27 27 27 27 27 27 28 28 29 29 29 29 29 28 28 29 29 29 29 28 28 28 28
21 21 22 23 23 23 23 23 23 23 23 24 24 24 25 25 25 26 27 27 27 27 27 26 25 25 26 27 28 28 28 27 27 28 28 29 29 29 29 28 27 27 27 27
20 20 21 22 22 22 21 22 22 22 22 22 23 23 24 24 25 26 27 27 26 26 26 26 26 26 26 27 27 27 27 26 27 27 27 28 28 28 28 27 27 27 26 26
19 19 20 19 20 20 21 21 22 22 21 21 21 22 23 23 24 24 25 25 25 25 24 24 25 25 25 25 25 25 25 25 26 26 27 27 27 27 26 26 26 26 26 26
17 18 17 17 18 18 19 19 20 20 20 20 20 19 20 20 21 21 21 22 22 23 23 23 23 24 24 24 24 24 24 24 25 26 26 26 26 26 25 26 26 26 26 27
Wind_Direction
247 248 252 254 256 259 261 263 264 268 270 272 275 277 280 282 286 290 294 298 299 300 299 298 295 296 298 298 298 298 299 299 299 298 298 298 297 298 296 295 294 293 293 292
251 252 255 257 256 259 262 262 262 265 266 269 273 275 278 281 284 288 291 293 296 296 296 296 294 294 295 296 297 296 296 298 299 297 295 295 294 296 295 295 294 293 292 292
255 257 258 258 258 260 259 260 261 264 266 270 272 273 276 279 282 285 289 292 293 293 292 293 294 293 291 294 294 293 293 294 296 297 295 293 294 294 294 295 294 294 293 292
255 257 258 260 261 261 260 260 260 263 265 268 271 272 275 278 282 284 286 289 291 292 293 291 289 289 290 290 292 292 292 292 293 295 296 296 294 293 293 294 293 294 294 293
255 256 259 260 261 261 261 261 262 263 265 267 269 272 274 277 281 284 284 285 287 289 289 289 288 289 290 292 292 292 291 291 292 293 294 295 294 295 293 293 293 294 295 295
256 258 260 262 263 263 263 263 263 264 265 268 271 272 275 278 280 282 283 285 286 285 287 287 288 287 288 292 292 292 292 291 290 291 292 293 292 294 294 293 292 292 292 293
256 258 260 263 264 264 264 266 266 266 268 270 271 272 274 276 279 281 282 284 285 284 285 286 288 287 289 291 291 291 291 291 291 290 290 291 293 294 295 295 293 293 294 293
256 257 259 261 263 264 266 265 266 267 269 270 270 271 272 275 277 279 280 282 283 284 285 285 286 286 287 288 287 287 287 288 289 290 290 292 293 294 295 295 295 295 295 294
256 257 258 259 261 263 263 264 265 266 268 269 269 271 272 274 275 278 280 280 280 281 283 284 286 286 286 286 285 285 286 285 287 288 291 293 294 294 295 296 296 296 295 295
255 256 257 259 261 262 263 264 265 266 267 268 269 271 272 274 277 279 279 278 279 280 281 283 283 285 284 284 285 285 286 286 287 289 291 292 294 294 295 296 296 296 295 295
254 256 258 259 260 261 263 265 265 266 267 268 269 270 272 274 277 277 277 277 279 280 281 282 283 283 283 285 287 289 288 287 286 288 291 291 293 296 298 298 298 297 296 296
255 256 258 259 260 261 263 264 266 266 267 269 271 271 272 274 275 276 277 278 279 282 282 282 282 282 283 284 286 289 290 289 288 290 291 293 295 297 298 298 298 298 298 297
256 257 258 259 260 262 262 263 266 267 268 268 270 270 271 272 273 275 276 278 280 282 283 282 281 282 284 285 287 288 290 291 291 293 293 293 294 296 298 299 298 298 297 298
257 258 259 260 262 263 263 264 266 269 271 270 270 270 270 269 271 273 275 278 280 282 282 282 282 283 284 285 287 288 290 292 293 294 295 295 295 296 297 298 298 298 297 297
257 258 259 260 262 263 264 265 267 268 270 271 270 270 269 268 270 272 274 277 279 280 282 282 283 284 285 286 286 288 291 293 295 295 296 296 295 295 295 296 297 297 297 296
256 257 259 260 261 263 265 266 267 267 268 267 267 269 268 269 271 272 274 277 278 279 280 281 283 284 286 286 286 289 290 292 294 294 294 294 294 294 296 298 298 298 297 296
256 257 259 259 260 261 264 265 267 267 266 267 265 267 269 270 270 271 274 278 279 279 281 282 283 284 285 285 286 288 290 291 291 292 293 292 293 296 297 297 297 297 297 296
256 258 260 259 258 259 262 263 265 265 265 268 270 270 269 268 270 272 275 278 280 281 282 283 284 285 285 286 287 289 290 290 291 293 294 293 294 296 298 298 297 296 296 297
255 256 257 257 257 259 260 260 262 265 267 270 270 268 267 268 270 272 276 280 282 283 284 284 285 286 286 286 288 289 290 291 292 293 294 294 295 296 297 298 299 297 296 297
256 257 256 255 256 258 260 262 262 263 267 270 270 269 269 271 274 277 279 281 281 282 282 283 285 287 288 288 288 289 290 291 293 293 293 294 294 294 296 297 298 298 296 296
258 258 258 258 257 258 260 262 262 264 266 268 269 269 271 273 276 279 281 283 283 284 285 287 288 289 289 289 290 289 289 291 292 294 293 294 294 295 296 297 299 299 298 298
258 258 259 259 259 260 262 263 264 265 267 267 268 269 270 273 276 279 280 282 283 284 286 288 289 290 290 290 291 290 290 291 293 294 294 294 296 297 299 300 300 300 301 301
259 260 260 260 260 262 263 264 265 265 267 268 269 271 272 274 276 277 280 281 283 284 285 287 287 288 289 291 291 291 293 294 294 294 293 294 295 297 298 299 300 301 302 303
260 259 260 260 260 261 262 262 264 266 266 267 269 271 273 274 275 278 279 280 281 282 283 286 288 290 291 292 293 293 294 294 294 293 293 294 296 297 298 298 299 301 302 303
262 263 262 262 261 260 260 261 262 264 266 267 269 272 274 275 276 279 281 282 283 284 285 287 288 290 293 294 294 294 295 294 294 294 294 295 295 297 298 299 301 303 303 303
263 264 262 260 260 260 260 260 261 263 266 270 272 274 276 278 280 280 281 281 282 284 287 288 290 292 294 294 295 296 297 297 297 297 297 297 297 298 300 301 302 303 304 303
260 261 261 261 261 261 260 260 261 264 268 271 274 276 279 281 282 282 283 284 285 286 287 288 290 293 294 296 297 299 300 301 300 300 298 298 300 301 301 302 302 303 302 303
Height
5856 5858 5860 5861 5862 5863 5864 5865 5866 5867 5868 5869 5869 5869 5869 5869 5868 5867 5866 5865 5864 5862 5860 5859 5858 5856 5855 5853 5851 5850 5848 5847 5845 5843 5841 5840 5838 5836 5834 5832 5830 5828 5827 5825
5850 5852 5854 5855 5857 5858 5858 5859 5859 5861 5863 5863 5863 5864 5864 5864 5863 5862 5861 5860 5859 5857 5856 5855 5853 5852 5850 5848 5846 5845 5843 5842 5840 5838 5836 5834 5833 5831 5829 5827 5825 5823 5821 5819
5844 5846 5847 5849 5851 5852 5852 5853 5854 5855 5857 5858 5858 5858 5858 5858 5858 5857 5856 5855 5854 5852 5851 5849 5848 5846 5845 5843 5841 5839 5837 5835 5834 5832 5830 5828 5827 5825 5823 5821 5819 5817 5815 5812
5837 5839 5840 5845 5844 5845 5846 5847 5848 5849 5850 5851 5852 5852 5852 5852 5852 5851 5851 5849 5848 5846 5845 5843 5842 5840 5838 5837 5834 5833 5831 5829 5827 5826 5824 5822 5820 5818 5816 5814 5812 5810 5808 5806
5830 5831 5833 5836 5837 5838 5839 5841 5842 5843 5844 5845 5845 5845 5846 5846 5845 5845 5844 5843 5842 5840 5839 5837 5835 5833 5831 5829 5828 5826 5825 5823 5821 5819 5817 5815 5813 5811 5809 5807 5805 5802 5800 5798
5823 5825 5826 5830 5831 5831 5833 5833 5835 5836 5837 5837 5838 5839 5840 5839 5838 5838 5837 5836 5835 5833 5832 5830 5829 5827 5824 5822 5820 5819 5818 5816 5814 5812 5810 5808 5806 5804 5801 5799 5797 5794 5792 5789
5815 5817 5819 5822 5823 5824 5826 5828 5828 5828 5829 5830 5830 5832 5832 5831 5831 5830 5830 5829 5827 5826 5825 5823 5821 5820 5818 5816 5814 5812 5810 5808 5806 5804 5802 5800 5798 5795 5793 5791 5788 5786 5783 5781
5808 5810 5813 5814 5815 5817 5818 5819 5819 5820 5821 5822 5823 5823 5823 5823 5823 5823 5822 5821 5820 5818 5817 5815 5814 5812 5810 5808 5806 5804 5802 5800 5798 5796 5794 5792 5789 5787 5785 5783 5780 5777 5775 5772
5801 5804 5805 5806 5807 5808 5809 5810 5811 5812 5813 5814 5814 5815 5815 5815 5815 5815 5814 5813 5812 5810 5809 5807 5806 5804 5802 5800 5798 5796 5794 5792 5790 5788 5786 5784 5781 5779 5777 5774 5771 5769 5766 5764
5793 5794 5796 5798 5799 5800 5801 5802 5803 5804 5805 5805 5806 5806 5806 5807 5806 5806 5805 5804 5803 5802 5800 5799 5797 5795 5794 5792 5789 5787 5785 5783 5781 5779 5778 5776 5773 5771 5768 5765 5763 5760 5758 5755
5784 5786 5788 5789 5791 5792 5793 5794 5795 5795 5796 5796 5796 5797 5797 5797 5797 5796 5795 5795 5794 5793 5791 5790 5788 5786 5785 5783 5781 5779 5776 5775 5773 5771 5769 5767 5764 5762 5759 5756 5754 5751 5749 5746
5776 5778 5779 5781 5782 5783 5784 5785 5786 5786 5787 5787 5787 5788 5788 5788 5788 5787 5786 5785 5785 5784 5782 5780 5778 5777 5776 5774 5772 5770 5768 5766 5764 5762 5760 5758 5756 5753 5750 5748 5745 5742 5739 5737
5767 5769 5770 5772 5773 5774 5775 5776 5777 5777 5778 5778 5778 5778 5778 5778 5778 5778 5777 5776 5775 5774 5773 5771 5769 5768 5767 5765 5764 5762 5760 5758 5756 5754 5752 5750 5747 5745 5742 5739 5736 5733 5730 5727
5758 5760 5761 5763 5764 5765 5766 5767 5768 5768 5768 5769 5768 5768 5768 5769 5769 5768 5767 5767 5766 5765 5763 5762 5760 5759 5758 5756 5755 5753 5752 5750 5748 5746 5743 5741 5739 5736 5733 5730 5728 5724 5721 5718
5749 5751 5753 5753 5755 5756 5757 5758 5759 5759 5759 5759 5759 5759 5759 5759 5759 5759 5759 5758 5757 5756 5755 5753 5752 5751 5749 5748 5746 5745 5743 5741 5739 5737 5735 5732 5730 5727 5725 5722 5719 5716 5713 5709
5740 5742 5743 5745 5746 5747 5748 5749 5750 5750 5750 5750 5750 5750 5750 5750 5751 5750 5750 5749 5748 5747 5746 5745 5744 5742 5740 5739 5738 5737 5735 5733 5731 5729 5726 5724 5721 5719 5716 5713 5710 5707 5704 5700
5732 5733 5735 5736 5737 5738 5739 5740 5741 5741 5741 5742 5742 5742 5742 5742 5742 5742 5741 5740 5739 5739 5738 5736 5735 5734 5732 5731 5730 5728 5727 5725 5723 5720 5718 5715 5713 5710 5707 5704 5701 5698 5695 5692
5723 5725 5726 5727 5728 5730 5731 5731 5732 5732 5733 5734 5734 5734 5734 5734 5734 5734 5733 5733 5732 5730 5729 5728 5727 5725 5724 5723 5721 5720 5718 5716 5714 5712 5709 5707 5704 5701 5698 5695 5692 5689 5686 5683
5715 5716 5717 5718 5720 5721 5722 5723 5724 5724 5725 5725 5725 5726 5726 5727 5726 5726 5726 5725 5724 5723 5721 5720 5718 5717 5716 5714 5712 5711 5709 5707 5705 5702 5700 5698 5695 5692 5689 5686 5683 5680 5677 5674
5707 5708 5709 5711 5712 5713 5714 5715 5716 5716 5717 5717 5717 5718 5719 5719 5718 5718 5718 5717 5716 5715 5713 5712 5710 5709 5707 5706 5704 5702 5700 5698 5696 5694 5691 5688 5686 5683 5680 5677 5674 5671 5668 5665
5699 5700 5701 5703 5704 5705 5706 5707 5708 5709 5709 5709 5710 5710 5711 5711 5711 5710 5710 5709 5708 5707 5705 5704 5702 5701 5699 5697 5695 5694 5692 5689 5687 5684 5682 5679 5676 5674 5671 5668 5665 5662 5659 5656
5691 5692 5694 5695 5696 5697 5698 5699 5699 5700 5701 5701 5702 5702 5703 5703 5703 5703 5702 5702 5701 5699 5698 5696 5694 5693 5691 5689 5687 5685 5683 5680 5678 5675 5673 5670 5667 5665 5662 5659 5657 5654 5651 5648
5684 5685 5686 5687 5688 5689 5690 5690 5691 5692 5693 5693 5694 5694 5695 5695 5695 5695 5695 5694 5692 5691 5690 5688 5686 5685 5683 5680 5678 5676 5674 5671 5669 5666 5664 5662 5659 5656 5654 5651 5648 5645 5642 5639
5677 5678 5678 5679 5680 5681 5682 5683 5683 5685 5686 5686 5687 5687 5687 5687 5687 5687 5686 5686 5684 5683 5682 5680 5678 5676 5674 5672 5670 5668 5665 5663 5660 5658 5656 5653 5651 5648 5645 5643 5640 5637 5634 5632
5670 5671 5671 5672 5673 5674 5675 5676 5677 5678 5679 5679 5679 5680 5680 5680 5679 5679 5678 5677 5676 5675 5674 5672 5670 5669 5667 5665 5662 5660 5657 5655 5652 5650 5648 5645 5643 5640 5637 5635 5632 5629 5627 5624
5664 5664 5665 5665 5666 5667 5668 5669 5670 5671 5672 5672 5672 5672 5672 5672 5672 5671 5670 5669 5668 5667 5666 5664 5663 5661 5659 5657 5655 5652 5650 5647 5645 5642 5640 5637 5635 5632 5629 5627 5624 5622 5619 5616
5658 5659 5659 5660 5660 5661 5662 5663 5663 5665 5665 5666 5666 5666 5666 5665 5665 5664 5663 5662 5661 5660 5658 5657 5655 5654 5652 5650 5647 5645 5642 5640 5637 5635 5632 5630 5627 5624 5622 5619 5617 5614 5611 5609